Location: Lugrin
(46.4033°N, 6.6674°E)
Time: 06:53:34
(UTC+00:00)

Abrixas rocket - Pass Details

Date: 18 September 2020
Orbit: 328 x 336 km, 48.4° (Epoch: 23 October)

Event Time Altitude Azimuth Distance (km) Brightness Sun altitude
Rises 19:30:57 0° 275° (W) 2,094 7.1 -19.6°
Reaches altitude 10° 19:32:58 10° 280° (W) 1,257 5.8 -20.0°
Enters shadow 19:35:15 45° 319° (NW) 461 2.8 -20.3°
